This demonstration page uses our WeatherBlox Daily Observations layout. Learn more.

Left ArrowRight Arrow

41.86663, -103.66717

Hourly Observations for May 27, 2021

Temp ( °F °C ) Dew Point ( °F °C ) Humidity (%) Winds ( mph kmh ) Pressure ( in mb ) Visibility ( mi km ) Precip ( " mm )
12:53 am 00:53 Cloudy 52 11.1 50 10 93 93 N 12 19 29.99 1016 10 16 0.00 0.00
1:53 am 01:53 Cloudy 52 11.1 49 9.4 89 89 NW 13 20 30.01 1016 10 16 0.00 0.00
2:41 am 02:41 Mostly Clear 48 8.9 47 8.3 96 96 WNW 8 13 30.09 1019 10 16 0.00 0.00
2:53 am 02:53 Mostly Clear 48 8.9 47 8.3 96 96 WNW 7 11 30.03 1017 10 16 0.00 0.00
3:53 am 03:53 Clear 47 8.3 46 7.8 97 97 NW 12 19 30.03 1017 10 16 0.00 0.00
4:53 am 04:53 Clear 46 7.8 42 5.6 86 86 NW 13 20 30.04 1017 10 16 0.00 0.00
5:53 am 05:53 Sunny 45 7.2 42 5.6 90 90 W 6 9 30.05 1018 10 16 0.00 0.00
6:53 am 06:53 Sunny 49 9.4 42 5.6 77 77 WNW 10 17 30.06 1018 10 16 0.00 0.00
7:53 am 07:53 Sunny 54 12.2 43 6.1 67 67 NW 14 22 30.06 1018 10 16 0.00 0.00
8:53 am 08:53 Sunny 59 15 43 6.1 56 56 NNW 18 30 30.07 1018 10 16 0.00 0.00
9:53 am 09:53 Partly Cloudy 63 17.2 44 6.7 50 50 NW 15 24 30.06 1018 10 16 0.00 0.00
10:53 am 10:53 Mostly Sunny 65 18.3 45 7.2 49 49 NW 16 26 30.06 1018 10 16 0.00 0.00
11:53 am 11:53 Mostly Sunny 68 20 50 10 53 53 NNW 17 28 30.04 1017 10 16 0.00 0.00
12:53 pm 12:53 Partly Cloudy 68 20 52 11.1 57 57 WNW 18 30 30.03 1017 10 16 0.00 0.00
1:53 pm 13:53 Partly Cloudy 68 20 51 10.6 55 55 NW 14 22 30.01 1016 10 16 0.00 0.00
2:53 pm 14:53 Sunny 71 21.7 54 12.2 55 55 N 10 17 29.99 1016 10 16 0.00 0.00
3:53 pm 15:53 Mostly Sunny 72 22.2 56 13.3 57 57 NNW 17 28 29.98 1015 10 16 0.00 0.00
4:09 pm 16:09 Mostly Sunny 69 20.6 53 11.7 57 57 NE 15 24 29.86 1011 10 16 0.00 0.00
4:53 pm 16:53 Sunny 68 20 51 10.6 55 55 ENE 15 24 29.98 1015 10 16 0.00 0.00
5:53 pm 17:53 Sunny 67 19.4 49 9.4 53 53 ENE 14 22 30.00 1016 10 16 0.00 0.00
6:53 pm 18:53 Sunny 62 16.7 47 8.3 58 58 NE 16 26 30.02 1017 10 16 0.00 0.00
7:53 pm 19:53 Sunny 57 13.9 46 7.8 67 67 ENE 14 22 30.04 1017 10 16 0.00 0.00
8:53 pm 20:53 Clear 51 10.6 43 6.1 74 74 ENE 14 22 30.09 1019 10 16 0.00 0.00
9:53 pm 21:53 Clear 48 8.9 42 5.6 80 80 E 10 17 30.10 1019 10 16 0.00 0.00
10:53 pm 22:53 Clear 47 8.3 42 5.6 83 83 E 8 13 30.12 1020 10 16 0.00 0.00
11:53 pm 23:53 Clear 45 7.2 41 5 86 86 E 9 15 30.12 1020 10 16 0.00 0.00

Powered by AerisWeather